Wind_Speed
19 19 19 20 21 21 21 21 20 20 20 21 21 22 23 23 24 25 25 26 27 27 28 29 30 30 31 32 33 33 34 35 36 36 37 38 38 39 39 40 41 41 42 43 43 44 44 44 44 45 45 46
19 19 19 20 20 20 20 19 19 20 20 21 22 23 24 25 26 27 27 28 29 29 30 31 31 32 33 34 34 35 36 36 37 38 38 39 39 39 40 40 41 42 42 43 44 45 45 46 46 47 47 48
18 18 19 19 18 18 18 18 19 20 21 23 24 25 26 26 27 28 28 29 30 30 31 31 32 32 33 34 34 35 35 36 37 37 38 39 39 40 40 40 41 41 42 43 43 44 44 45 45 46 47 48
17 17 17 17 16 17 18 19 20 22 23 23 24 25 26 27 27 28 29 29 29 30 30 30 31 31 32 33 34 35 36 37 38 39 40 41 42 42 43 43 43 43 43 44 44 44 44 44 45 45 46 47
15 15 15 15 16 18 19 20 21 22 23 24 24 25 26 26 26 27 27 28 28 29 29 30 31 32 33 34 36 37 38 39 40 41 42 43 44 45 45 45 46 46 46 46 47 47 47 47 47 47 47 47
12 13 15 16 18 19 20 21 22 23 23 23 24 24 25 25 26 26 26 27 28 29 30 32 33 34 35 36 37 38 39 40 41 42 43 43 44 44 45 46 46 46 47 47 47 48 48 49 49 49 49 49
12 14 15 17 18 19 20 21 21 22 23 23 23 24 25 26 26 27 28 29 30 32 33 34 35 36 37 38 38 39 40 41 41 42 43 43 43 44 44 45 45 46 46 46 47 48 48 49 50 51 51 52
13 14 15 17 18 19 20 20 21 22 23 23 24 25 26 27 28 30 31 32 34 35 35 36 36 37 38 39 39 40 40 40 41 41 42 42 43 43 44 44 45 45 46 47 47 48 49 50 51 52 53 54
13 14 16 17 18 19 20 20 21 22 24 25 26 27 29 29 31 32 34 35 36 36 37 37 37 38 38 39 39 39 39 39 39 39 40 41 41 42 44 45 46 46 47 48 49 49 50 51 52 53 54 55
14 15 16 18 19 20 21 22 23 24 25 27 28 30 30 32 33 34 36 37 37 37 37 37 38 38 38 37 37 37 37 38 38 39 40 41 42 43 43 45 46 47 47 48 49 49 50 51 52 52 53 54
15 16 17 19 20 21 22 24 25 26 28 29 31 31 32 33 35 36 37 37 37 37 37 37 37 37 36 36 37 37 38 39 39 40 41 41 42 42 43 43 44 45 46 47 48 49 49 50 51 51 52 53
16 17 19 20 22 23 25 26 27 29 30 31 32 33 33 35 36 37 37 37 37 37 37 37 36 36 37 38 38 39 40 40 40 40 41 41 41 42 43 44 44 46 47 48 49 49 50 51 51 52 52 53
17 19 20 22 23 25 27 28 30 31 32 33 33 34 35 36 37 37 38 38 38 38 38 37 37 38 39 40 40 41 41 40 41 41 41 42 43 44 45 47 48 48 49 50 50 51 51 52 53 53 54 54
18 20 22 23 25 27 29 30 32 33 34 35 35 36 36 37 38 38 39 40 40 39 38 39 39 40 41 41 41 41 42 42 43 44 44 45 46 48 49 50 51 51 51 51 52 52 53 53 54 54 54 55
19 21 23 25 27 29 30 32 34 35 35 36 37 37 38 39 40 41 41 41 40 39 40 40 41 42 42 42 42 42 43 44 45 47 48 49 50 51 51 52 53 53 53 53 54 54 54 54 54 54 54 54
20 22 24 26 28 30 32 34 35 36 37 38 38 39 40 41 42 42 42 41 41 41 41 42 42 42 42 42 43 43 44 45 47 49 50 52 52 52 52 53 54 55 55 55 55 55 54 53 52 52 51 51
21 23 25 27 29 31 33 35 36 37 39 39 40 41 42 42 42 42 42 42 42 42 43 43 43 42 42 42 43 45 46 47 48 50 51 51 51 52 52 53 53 54 53 53 52 51 50 49 49 48 48 47
22 24 26 28 30 32 34 36 37 39 40 41 41 42 42 42 43 43 42 42 43 43 44 43 43 42 43 43 45 47 48 50 50 50 50 50 50 51 51 51 50 50 48 48 47 46 46 46 46 46 46 46
22 24 27 29 31 33 35 37 38 40 41 42 42 42 43 43 43 42 42 43 44 44 44 43 42 43 44 45 47 48 50 51 51 50 49 49 49 48 47 47 46 46 45 45 45 45 45 45 45 44 43 43
23 25 27 29 32 34 36 38 39 40 41 42 43 43 43 43 42 42 43 44 44 44 43 42 43 44 45 47 48 49 49 49 49 50 50 49 47 46 45 44 44 44 44 44 45 45 44 43 43 41 40 40
24 26 28 31 33 36 37 39 40 41 42 42 43 43 43 42 43 43 44 45 44 43 42 43 43 45 46 47 47 47 47 48 48 48 48 47 47 46 45 45 44 44 44 44 43 42 41 41 40 39 39 39
25 27 29 32 35 37 38 39 41 41 42 43 43 43 43 43 43 44 45 44 43 42 42 43 44 44 45 45 45 45 45 47 47 46 47 48 48 48 47 46 45 43 42 42 41 39 38 39 39 38 38 39
25 28 30 33 36 37 39 40 41 42 42 43 43 43 43 43 44 45 44 42 41 41 42 43 43 43 43 43 43 43 43 44 45 46 47 47 46 47 46 45 44 42 40 39 39 38 37 37 37 37 37 38
26 28 31 34 37 38 39 40 41 42 43 43 43 43 43 44 45 44 42 40 40 41 42 43 42 42 42 41 41 42 42 43 45 46 46 45 44 44 43 42 40 39 38 36 34 34 35 35 33 34 36 37
26 29 32 35 37 39 40 40 41 42 42 42 42 43 44 44 44 41 40 39 40 41 41 41 41 40 40 40 41 42 44 45 45 45 45 45 45 43 42 41 39 38 36 34 32 31 31 31 30 32 35 34
27 30 33 36 38 39 40 41 42 42 42 42 42 43 44 43 41 39 38 39 40 40 39 39 39 39 39 40 42 43 44 44 43 42 42 42 43 43 43 42 41 39 38 36 35 34 32 31 30 31 33 32
28 30 33 36 38 39 40 42 42 42 42 42 43 43 43 41 38 37 37 38 38 38 37 37 37 38 39 40 41 41 41 40 40 40 40 40 41 41 41 41 41 41 40 39 38 36 35 34 33 32 32 32
28 30 33 36 38 39 41 42 43 42 42 42 42 42 41 38 36 36 37 37 37 36 36 36 36 37 38 39 39 39 38 38 38 38 39 39 38 39 39 40 41 41 41 40 40 39 39 38 37 36 35 34
28 30 33 36 38 39 41 42 43 42 42 42 42 40 38 36 35 36 37 36 36 35 35 35 36 37 38 38 38 37 37 37 38 38 38 38 38 39 40 41 42 41 41 41 42 42 41 40 40 39 37 35
28 31 34 36 38 40 42 43 42 42 41 41 40 38 35 35 35 36 36 35 35 35 34 35 35 36 36 36 36 37 37 38 38 38 37 37 38 39 40 41 41 41 41 41 41 41 41 40 39 38 37 36
29 31 34 36 38 40 42 42 42 41 41 40 38 35 34 34 35 35 34 34 33 33 33 34 35 35 35 35 36 36 37 37 37 37 37 37 39 39 40 40 40 41 41 41 40 40 39 38 37 36 37 38
Wind_Direction
317 319 321 324 328 333 336 335 333 329 326 325 325 326 327 327 327 326 326 325 324 324 322 321 320 318 317 316 315 314 313 311 310 309 308 306 305 304 303 302 301 300 299 298 297 297 296 295 294 293 292 291
322 323 325 330 334 336 336 333 331 328 327 327 328 329 329 329 328 327 326 325 324 323 322 321 319 318 317 316 315 314 313 311 310 309 307 306 305 304 303 302 301 301 300 300 299 299 298 297 297 296 294 293
324 325 330 334 337 336 334 331 329 328 328 329 330 330 329 328 327 326 326 325 324 323 322 320 319 318 317 316 315 314 313 312 311 310 309 308 307 307 306 306 305 305 304 303 302 301 300 299 298 297 295 294
326 329 335 337 336 334 331 330 330 331 331 332 331 330 329 328 327 327 326 325 324 323 322 322 321 320 320 319 318 317 316 316 315 314 314 313 313 312 312 311 310 309 309 307 306 305 304 303 301 299 298 296
331 334 336 336 334 333 333 334 334 333 333 332 331 330 329 329 328 327 327 326 326 326 325 325 325 324 324 323 321 320 319 318 317 316 315 315 314 314 313 313 312 312 311 310 309 308 307 306 304 303 301 300
333 334 335 335 336 336 336 336 335 334 333 332 331 330 330 330 330 330 330 329 329 328 328 327 327 325 324 322 320 319 318 317 316 315 315 314 314 314 314 313 312 312 311 310 309 309 308 307 305 304 303 301
335 336 337 338 338 338 337 337 336 335 333 332 332 332 333 333 333 333 332 331 330 330 329 327 326 324 323 322 320 319 319 318 317 317 316 316 316 315 314 313 312 311 310 309 308 307 306 305 304 303 302 300
339 340 340 340 340 340 340 338 336 335 334 333 334 335 336 335 335 334 334 333 332 330 328 327 326 325 324 322 321 320 320 320 319 318 317 316 315 314 312 311 310 309 308 306 305 304 303 302 301 300 299 299
343 343 342 343 343 343 341 338 338 337 335 335 337 337 336 336 336 336 336 335 333 331 329 327 326 325 322 321 320 320 320 319 318 317 316 315 313 312 311 310 309 308 307 306 305 304 303 301 300 299 298 297
344 343 344 345 344 342 340 339 339 338 336 338 339 338 337 337 338 337 336 335 333 331 329 326 324 322 321 320 320 320 320 319 318 317 315 314 313 312 311 311 310 310 309 308 307 306 304 303 302 300 298 297
343 343 345 344 341 340 340 340 339 338 339 340 339 338 338 338 338 337 336 334 332 329 327 325 323 322 321 322 322 321 321 320 319 318 317 316 315 314 314 313 312 311 311 310 309 307 306 305 303 302 300 299
343 344 343 341 340 340 340 341 340 340 340 340 339 338 338 338 337 335 334 332 330 328 326 325 325 325 325 324 324 323 322 321 320 320 319 319 318 318 317 316 316 315 314 313 312 311 309 308 307 305 304 302
341 341 341 340 340 341 341 341 341 341 341 340 339 338 337 336 335 333 332 331 331 330 329 328 328 328 327 326 325 324 323 323 323 323 323 323 323 322 322 321 320 319 318 317 316 315 314 313 311 310 308 306
339 339 340 340 341 341 341 342 342 342 341 340 339 338 336 335 334 333 333 333 332 331 331 330 330 328 327 326 325 326 327 327 327 327 327 327 327 327 326 325 324 323 323 322 321 320 318 317 315 313 312 310
337 339 340 340 341 341 341 342 342 341 340 339 338 337 336 335 334 334 334 333 332 332 332 330 329 328 327 327 328 329 329 329 329 329 330 330 330 330 329 328 327 326 326 325 324 322 321 319 318 316 314 313
336 338 339 340 340 341 342 342 341 341 340 339 338 337 336 335 335 334 333 333 333 332 331 330 329 329 329 330 330 330 330 331 331 332 333 333 332 331 331 330 329 328 327 325 324 322 321 320 319 317 316 315
334 337 338 339 339 341 341 341 341 340 339 338 337 337 336 335 334 333 333 333 332 331 330 330 330 331 332 332 331 331 332 333 334 334 334 333 333 332 332 331 330 328 326 325 324 323 323 323 322 322 321 320
333 336 337 338 338 340 340 340 340 339 339 338 337 336 335 334 333 333 333 332 331 331 331 331 332 333 333 332 332 333 333 334 334 334 334 334 334 333 332 331 329 328 328 328 329 329 329 330 330 330 329 327
330 333 335 336 337 339 340 340 340 339 338 337 336 335 334 334 333 333 332 331 332 332 332 333 334 333 332 332 334 335 335 334 333 334 335 335 335 334 333 332 332 333 335 336 337 337 337 337 336 336 335 333
328 331 333 335 337 339 340 339 339 339 337 336 335 334 334 333 332 332 332 332 333 333 334 334 333 333 333 335 336 336 335 334 334 335 336 336 335 336 337 338 341 342 344 344 344 344 343 342 341 341 340 338
327 330 332 335 338 339 339 339 338 338 336 335 334 334 334 333 333 333 333 333 333 334 334 333 333 334 335 336 337 335 335 336 338 338 337 337 338 340 344 347 349 350 349 348 349 350 348 346 346 346 345 343
326 329 333 336 338 338 338 338 338 336 335 334 333 334 334 334 334 334 334 334 334 334 333 334 334 335 337 337 336 336 339 340 340 340 340 341 343 346 349 351 352 353 353 353 354 354 352 350 350 350 348 347
326 330 333 336 336 336 337 337 336 335 333 333 334 335 335 334 334 334 334 333 333 333 333 334 335 337 337 336 338 341 343 343 342 342 344 347 349 351 352 353 354 355 356 358 357 355 355 355 353 352 352 351
327 330 333 335 335 335 336 335 334 333 333 334 334 335 334 334 334 333 333 333 333 334 334 335 337 337 337 339 344 346 345 345 346 347 349 351 353 354 354 355 356 357 359 1 0 358 358 358 355 354 355 354
327 330 332 333 333 334 334 334 333 333 333 334 334 335 334 334 333 332 332 333 333 334 336 337 337 338 341 345 348 347 347 349 351 353 353 354 354 354 354 356 357 358 360 360 360 2 3 2 1 360 0 358
326 329 331 331 332 332 333 332 332 332 333 333 334 335 334 333 332 332 331 333 335 337 338 338 339 342 347 349 349 350 352 354 355 357 357 356 355 355 356 356 356 357 358 358 359 3 3 2 5 7 8 5
326 328 329 330 331 331 331 331 332 332 333 334 335 334 333 332 331 331 333 336 338 339 338 340 344 349 351 351 352 355 357 358 359 359 359 359 359 359 358 358 358 358 358 360 0 1 1 2 4 8 12 12
324 325 327 328 330 330 330 331 332 333 334 334 334 333 332 331 331 333 336 339 340 339 340 345 350 352 353 354 357 359 360 1 1 2 2 2 3 2 1 1 2 2 2 2 1 1 3 4 5 7 11 15
321 323 325 327 329 329 330 331 332 333 333 333 333 333 332 331 333 336 340 341 340 341 345 350 353 354 356 358 0 1 2 4 4 5 6 5 6 6 5 5 6 6 5 5 6 5 6 6 8 9 10 14
319 321 324 326 327 329 331 331 332 332 332 332 332 332 331 332 336 340 342 341 342 345 349 353 355 358 360 2 4 4 5 7 7 8 8 8 9 9 10 10 10 9 9 10 10 10 11 12 11 11 10 10
317 320 323 325 327 329 331 331 331 331 331 332 332 332 333 336 341 342 342 342 344 349 352 356 359 1 4 5 7 8 9 9 9 10 10 11 12 12 13 13 12 12 13 13 13 14 15 15 14 13 11 9
Height
3133 3132 3131 3130 3130 3129 3128 3126 3124 3122 3121 3120 3118 3117 3116 3114 3113 3111 3110 3108 3107 3106 3104 3103 3101 3100 3098 3096 3095 3093 3091 3089 3088 3086 3084 3082 3080 3079 3077 3076 3074 3072 3070 3069 3067 3065 3064 3062 3061 3060 3058 3056
3132 3131 3130 3130 3129 3127 3126 3124 3123 3121 3120 3118 3117 3116 3114 3113 3111 3110 3108 3106 3105 3104 3102 3101 3099 3098 3096 3094 3092 3091 3089 3087 3085 3083 3081 3079 3077 3076 3074 3073 3071 3069 3067 3065 3063 3061 3060 3058 3057 3055 3053 3051
3131 3130 3129 3129 3127 3126 3124 3123 3122 3120 3119 3118 3116 3114 3113 3111 3109 3108 3106 3105 3103 3102 3101 3099 3098 3096 3094 3092 3090 3088 3086 3084 3082 3080 3078 3076 3074 3072 3071 3069 3067 3065 3063 3061 3059 3057 3055 3054 3052 3050 3048 3046
3130 3129 3128 3127 3126 3125 3123 3122 3121 3119 3118 3116 3115 3113 3111 3110 3108 3106 3105 3104 3102 3101 3099 3098 3096 3094 3092 3090 3088 3086 3084 3081 3079 3077 3075 3072 3070 3068 3067 3065 3063 3061 3059 3057 3055 3053 3051 3049 3047 3045 3043 3041
3129 3128 3127 3126 3125 3124 3123 3121 3120 3118 3116 3115 3113 3112 3110 3109 3107 3106 3105 3103 3102 3100 3098 3097 3095 3092 3090 3088 3086 3083 3081 3078 3076 3074 3071 3069 3067 3065 3063 3061 3059 3057 3055 3052 3050 3048 3046 3044 3042 3040 3038 3036
3128 3127 3126 3125 3124 3123 3122 3120 3119 3117 3115 3114 3113 3111 3110 3108 3107 3106 3104 3103 3101 3099 3097 3095 3092 3090 3088 3085 3083 3081 3078 3076 3074 3071 3069 3067 3064 3062 3060 3057 3055 3053 3051 3049 3046 3044 3042 3040 3037 3035 3033 3031
3128 3127 3126 3125 3124 3122 3121 3119 3118 3116 3115 3113 3112 3111 3109 3108 3106 3105 3103 3101 3099 3096 3094 3092 3089 3087 3085 3082 3080 3078 3076 3073 3071 3068 3066 3063 3061 3059 3056 3054 3052 3049 3047 3046 3043 3041 3038 3036 3033 3030 3028 3026
3128 3127 3126 3124 3123 3122 3120 3119 3117 3116 3114 3113 3111 3109 3108 3106 3105 3103 3100 3098 3096 3094 3091 3089 3087 3085 3082 3080 3077 3075 3073 3071 3068 3066 3063 3061 3058 3056 3053 3051 3048 3046 3043 3041 3039 3037 3034 3032 3029 3026 3024 3021
3127 3126 3125 3124 3122 3121 3120 3118 3117 3115 3113 3112 3110 3108 3106 3104 3102 3100 3098 3096 3093 3091 3089 3087 3085 3082 3080 3077 3075 3073 3071 3068 3066 3064 3061 3059 3056 3053 3050 3047 3044 3041 3039 3036 3034 3031 3029 3026 3024 3021 3019 3016
3127 3125 3124 3123 3122 3120 3119 3117 3115 3114 3112 3110 3108 3106 3104 3102 3100 3098 3096 3093 3091 3089 3087 3085 3082 3080 3078 3075 3073 3071 3068 3066 3063 3060 3058 3055 3052 3050 3046 3043 3040 3037 3034 3031 3029 3026 3023 3021 3018 3016 3013 3011
3126 3125 3123 3122 3121 3119 3118 3116 3114 3112 3110 3109 3107 3105 3103 3100 3098 3096 3094 3092 3089 3087 3085 3083 3080 3078 3075 3073 3070 3068 3065 3063 3060 3057 3054 3051 3048 3046 3043 3040 3037 3033 3030 3027 3024 3021 3018 3015 3013 3010 3007 3005
3125 3124 3122 3121 3120 3118 3116 3115 3113 3111 3109 3107 3105 3103 3101 3099 3096 3094 3092 3090 3088 3085 3083 3080 3077 3075 3072 3069 3067 3064 3061 3059 3056 3053 3050 3047 3044 3041 3039 3035 3032 3029 3026 3023 3019 3016 3013 3010 3007 3003 3001 2998
3124 3123 3121 3120 3118 3117 3115 3113 3112 3110 3108 3106 3104 3101 3099 3097 3095 3093 3090 3088 3085 3082 3080 3077 3074 3071 3069 3066 3063 3060 3058 3055 3052 3049 3046 3043 3040 3037 3033 3030 3027 3023 3020 3017 3013 3010 3006 3003 3000 2997 2994 2990
3123 3121 3120 3118 3117 3115 3113 3112 3110 3108 3106 3104 3102 3100 3097 3095 3093 3090 3088 3085 3082 3079 3077 3074 3071 3068 3065 3062 3059 3056 3053 3050 3046 3043 3041 3038 3034 3031 3027 3023 3020 3016 3013 3009 3006 3003 3000 2996 2993 2990 2987 2983
3121 3120 3119 3117 3115 3114 3112 3110 3108 3106 3104 3102 3100 3098 3095 3093 3090 3087 3085 3082 3079 3077 3074 3071 3069 3065 3062 3059 3055 3051 3048 3045 3042 3038 3035 3031 3028 3024 3020 3017 3013 3010 3007 3003 3000 2997 2994 2990 2987 2984 2980 2977
3120 3119 3117 3116 3114 3112 3111 3109 3106 3104 3102 3100 3097 3095 3093 3090 3087 3084 3082 3079 3077 3074 3071 3068 3065 3062 3059 3055 3051 3048 3045 3041 3038 3034 3030 3026 3023 3019 3016 3012 3008 3004 3001 2998 2995 2992 2989 2985 2982 2979 2975 2972
3119 3117 3116 3114 3113 3111 3109 3107 3105 3102 3100 3097 3095 3092 3090 3087 3085 3082 3079 3076 3074 3071 3068 3065 3062 3058 3055 3051 3047 3044 3041 3038 3034 3031 3027 3024 3020 3017 3013 3009 3005 3002 2998 2995 2992 2988 2984 2981 2977 2973 2970 2966
3118 3116 3115 3113 3111 3110 3108 3105 3103 3100 3097 3095 3092 3090 3087 3085 3082 3079 3077 3074 3071 3068 3065 3061 3058 3054 3051 3048 3044 3040 3037 3034 3031 3028 3025 3022 3018 3014 3011 3007 3003 3000 2997 2992 2988 2984 2980 2976 2971 2967 2964 2961
3117 3115 3114 3112 3110 3108 3106 3104 3101 3098 3095 3093 3090 3088 3085 3082 3079 3077 3074 3071 3068 3065 3061 3058 3054 3051 3048 3044 3040 3036 3032 3030 3027 3024 3021 3019 3016 3012 3009 3005 3001 2997 2992 2987 2983 2979 2975 2971 2967 2964 2960 2957
3116 3114 3113 3111 3109 3107 3104 3102 3099 3096 3093 3091 3088 3085 3083 3080 3077 3074 3071 3068 3064 3061 3058 3055 3051 3048 3044 3040 3036 3033 3030 3027 3024 3021 3018 3015 3013 3010 3006 3002 2997 2992 2987 2983 2978 2974 2970 2967 2964 2961 2957 2954
3114 3113 3111 3109 3107 3105 3102 3100 3097 3094 3091 3089 3086 3083 3081 3077 3074 3071 3068 3065 3061 3058 3055 3052 3049 3045 3041 3037 3034 3031 3028 3025 3021 3018 3015 3012 3009 3005 3001 2997 2992 2988 2984 2980 2976 2972 2968 2965 2962 2959 2955 2951
3113 3111 3109 3107 3105 3103 3101 3098 3095 3092 3090 3087 3084 3081 3078 3075 3072 3068 3065 3062 3059 3056 3053 3049 3046 3042 3039 3036 3033 3029 3025 3021 3018 3015 3011 3007 3003 3000 2996 2992 2989 2986 2982 2978 2974 2972 2968 2963 2960 2957 2953 2949
3111 3109 3107 3105 3103 3101 3099 3096 3093 3091 3088 3084 3081 3078 3075 3072 3069 3066 3063 3060 3057 3054 3050 3047 3044 3041 3037 3034 3031 3027 3023 3019 3016 3012 3008 3004 3000 2996 2993 2990 2987 2985 2982 2978 2973 2971 2967 2963 2958 2956 2952 2947
3109 3107 3105 3104 3101 3099 3097 3094 3092 3089 3086 3082 3079 3076 3073 3071 3067 3064 3061 3058 3055 3052 3048 3045 3042 3039 3035 3032 3028 3024 3021 3018 3013 3009 3005 3002 2998 2995 2992 2990 2988 2985 2982 2979 2976 2972 2968 2964 2959 2956 2952 2947
3108 3106 3104 3102 3100 3097 3095 3093 3090 3087 3084 3081 3078 3075 3072 3069 3066 3062 3059 3056 3053 3050 3046 3043 3040 3037 3033 3029 3025 3021 3018 3014 3009 3006 3002 2998 2995 2993 2991 2989 2987 2985 2982 2980 2978 2974 2970 2966 2961 2956 2952 2947
3105 3104 3102 3100 3098 3096 3094 3091 3088 3085 3082 3079 3075 3072 3070 3067 3064 3061 3058 3055 3051 3048 3045 3042 3038 3034 3030 3026 3022 3019 3014 3011 3008 3005 3001 2997 2994 2991 2988 2986 2983 2982 2980 2977 2974 2972 2970 2966 2962 2957 2952 2947
3103 3102 3101 3099 3097 3094 3092 3089 3086 3083 3079 3076 3073 3070 3068 3065 3063 3059 3056 3053 3050 3046 3043 3040 3036 3032 3028 3024 3020 3017 3013 3010 3008 3004 3001 2998 2994 2990 2987 2984 2982 2979 2976 2973 2971 2969 2967 2963 2960 2958 2953 2948
3102 3100 3099 3097 3095 3092 3090 3086 3083 3080 3077 3074 3071 3069 3066 3064 3061 3057 3054 3051 3048 3045 3041 3037 3033 3029 3026 3022 3019 3016 3013 3011 3007 3004 3000 2997 2994 2991 2987 2984 2980 2977 2974 2971 2968 2965 2962 2959 2956 2954 2952 2948
3100 3099 3097 3095 3093 3091 3088 3084 3081 3077 3074 3072 3069 3067 3065 3062 3058 3055 3051 3048 3046 3042 3039 3035 3031 3028 3024 3021 3018 3015 3012 3009 3005 3002 2999 2996 2993 2990 2986 2982 2978 2976 2973 2969 2965 2962 2959 2957 2954 2951 2950 2948
3099 3097 3096 3093 3091 3088 3085 3082 3078 3075 3073 3070 3068 3066 3063 3060 3056 3052 3049 3047 3044 3040 3036 3033 3029 3026 3023 3020 3017 3013 3010 3007 3004 3001 2999 2996 2993 2989 2986 2982 2979 2975 2972 2968 2965 2962 2959 2956 2954 2952 2950 2947
3097 3095 3094 3092 3089 3086 3083 3080 3077 3074 3071 3069 3066 3064 3061 3057 3054 3050 3048 3045 3042 3038 3035 3032 3028 3025 3021 3018 3015 3012 3009 3006 3004 3001 2999 2996 2992 2989 2986 2983 2980 2976 2972 2969 2966 2963 2960 2958 2956 2953 2950 2946